Last 30 Days

Squaw-Siberia 8700'

Daily Data | America/Los_Angeles
as of 2/18/20 7:41 AM PST
Date Daily Max Temp (°F) Max Temp Time Daily Min Temp (°F) Min Temp Time Wind Spd (mph) Daily Max Wind (mph) Max Wind Time Max Wind Dir (°) Wet Bulb (°F) WetB Hrs <28F (hrs)
2/17/20 33.5 1456 20.1 0435 14.5 29.5 1020 ENE | 60 20.6 -
2/16/20 34.6 1555 24.9 2351 26.8 65.9 0557 SW | 222 26.6 18.4
2/15/20 34.1 1502 26.2 0527 28.6 56.9 2350 SW | 218 24.8 20.6
2/14/20 35.0 1450 25.2 0658 16.7 44.1 0324 SSW | 208 24.8 20.5
2/13/20 36.1 1206 26.5 2356 22.4 50.7 1851 WSW | 253 25.1 18.9
2/12/20 33.7 0630 25.4 2321 16.0 37.1 0900 ENE | 71 24.2 24.0
2/11/20 34.0 1513 17.0 0311 19.3 41.6 0011 ENE | 62 21.1 24.0
2/10/20 29.0 1534 12.5 0053 23.9 55.8 1634 E | 95 17.6 24.0
2/9/20 19.0 1516 9.8 0510 37.0 89.7 1758 NE | 48 12.5 24.0
2/8/20 34.0 1209 11.9 2324 32.6 55.3 2119 ENE | 57 23.2 23.5
2/7/20 46.0 1311 31.0 2255 19.2 38.1 2300 WSW | 244 26.6 17.4
2/6/20 38.1 1302 27.6 0017 19.2 46.3 0025 ENE | 67 28.1 11.1
2/5/20 34.5 1335 21.1 0150 26.1 65.9 0506 ENE | 58 26.1 14.6
2/4/20 23.3 2358 2.0 0706 24.7 69.7 0303 ENE | 78 8.0 24.0
2/3/20 9.4 1519 1.3 0600 32.4 85.4 2208 ENE | 63 3.3 24.0
2/2/20 36.0 0003 5.4 2359 34.6 70.7 1006 SW | 234 17.7 24.0
2/1/20 48.0 0010 34.7 2351 20.5 50.7 2349 SW | 220 28.7 7.4
1/31/20 53.3 1212 32.5 0011 11.0 36.8 0001 ENE | 72 33.2 0.0
1/30/20 36.3 1823 29.5 2149 15.8 39.9 2352 E | 81 31.2 0.0
1/29/20 35.8 2147 17.1 0721 15.8 36.7 1047 ENE | 73 22.4 18.7
1/28/20 26.7 1252 17.2 0317 32.6 72.6 1309 WSW | 252 21.4 24.0
1/27/20 29.4 1102 18.0 2348 23.1 39.9 2324 SSW | 212 23.6 22.0
1/26/20 31.8 0046 21.3 2306 32.8 72.5 0042 SSW | 212 26.5 16.7
1/25/20 38.8 1302 21.5 0003 16.7 63.7 2355 SSW | 212 31.4 4.1
1/24/20 31.5 0005 21.1 2238 31.6 77.7 0656 WSW | 243 26.9 17.2
1/23/20 33.6 1407 27.6 0110 14.6 49.8 2219 SW | 227 31.0 1.0
1/22/20 31.7 1526 24.8 0539 20.4 79.7 0105 SW | 218 27.9 12.1
1/21/20 26.4 2358 22.0 0658 46.7 82.9 1237 SW | 218 23.5 24.0
1/20/20 34.0 0021 22.2 2042 30.4 57.7 1304 SW | 224 24.3 24.0
1/19/20 41.8 1430 32.4 0449 14.0 44.1 2235 W | 263 27.0 14.3
Max 53.3 - 34.7 - 46.7 89.7 - - 33.2 24.0
Avg - - - - 24.0 - - - 23.7 -
Min 9.4 - 1.3 - 11.0 29.5 - - 3.3 0.0